FW3192 Weather Reports


Display with metric or nautical units.
time (UTC)temp
F
wind
direction
speed
MPH
gust
MPH
rain 1hr
in
rain 24hr
in
rain mn
in
humidity
%
barometer
mb
20260506173135 54 189 6.0 11.0 0.00 0.00 0.00 70 1026.3
20260506171558 54 153 4.0 7.0 0.00 0.00 0.00 71 1026.3
20260506170059 54 157 6.0 10.0 0.00 0.00 0.00 70 1026.4
20260506164557 54 159 6.0 9.0 0.00 0.00 0.00 70 1026.4
20260506163103 54 162 8.0 13.0 0.00 0.00 0.00 69 1026.4
20260506161539 55 154 9.0 18.0 0.00 0.00 0.00 66 1026.4
20260506160037 55 155 9.0 19.0 0.00 0.00 0.00 64 1026.4
20260506154534 56 204 11.0 21.0 0.00 0.00 0.00 65 1026.2
20260506153033 55 168 9.0 14.0 0.00 0.00 0.00 63 1026.2
20260506151532 55 171 10.0 14.0 0.00 0.00 0.00 62 1026.3
20260506150031 55 161 8.0 13.0 0.00 0.00 0.00 64 1026.1
20260506144529 55 157 10.0 14.0 0.00 0.00 0.00 63 1026.1
20260506143030 55 153 9.0 18.0 0.00 0.00 0.00 64 1026.0
20260506141510 56 170 9.0 19.0 0.00 0.00 0.00 67 1026.0
20260506140009 56 151 11.0 19.0 0.00 0.00 0.00 67 1026.1
20260506134506 56 156 15.0 20.0 0.00 0.00 0.00 64 1025.7
20260506133005 56 171 13.0 19.0 0.00 0.00 0.00 68 1025.6
20260506131506 56 175 11.0 18.0 0.00 0.00 0.00 70 1025.5
20260506130002 57 178 12.0 18.0 0.00 0.00 0.00 70 1025.4
20260506124558 57 187 13.0 19.0 0.00 0.00 0.00 71 1025.2
20260506123058 57 147 10.0 18.0 0.00 0.00 0.00 74 1025.1
20260506121541 57 157 10.0 17.0 0.00 0.00 0.00 76 1025.0
20260506120039 57 165 10.0 17.0 0.00 0.00 0.00 77 1024.8
20260506114537 57 160 10.0 16.0 0.00 0.00 0.00 79 1024.8
20260506113036 57 157 10.0 18.0 0.00 0.00 0.00 80 1024.7
20260506111533 57 192 10.0 17.0 0.00 0.00 0.00 80 1024.6
20260506110034 57 168 15.0 22.0 0.00 0.00 0.00 81 1024.4
20260506104530 57 187 15.0 22.0 0.00 0.00 0.00 81 1024.2
20260506103029 57 161 14.0 19.0 0.00 0.00 0.00 83 1024.0
20260506101521 57 161 15.0 22.0 0.00 0.00 0.00 83 1023.8
20260506100013 57 170 17.0 23.0 0.00 0.00 0.00 84 1023.6
20260506094510 57 209 15.0 22.0 0.00 0.00 0.00 90 1023.3
20260506093009 57 181 18.0 26.0 0.00 0.00 0.00 90 1023.2
20260506091508 58 176 17.0 25.0 0.00 0.00 0.00 89 1022.9
20260506090014 60 212 19.0 27.0 0.00 0.00 0.00 85 1022.4
20260506084508 60 203 19.0 25.0 0.00 0.00 0.00 83 1022.2
20260506083002 60 212 14.0 17.0 0.00 0.00 0.00 86 1022.0
20260506081549 61 208 19.0 25.0 0.00 0.00 0.00 81 1021.7
20260506080104 62 234 10.0 18.0 0.00 0.00 0.00 77 1021.6
20260506073102 62 246 12.0 19.0 0.00 0.00 0.00 75 1021.4
20260506071549 63 228 11.0 16.0 0.00 0.00 0.00 73 1021.3
20260506061533 63 183 13.0 18.0 0.00 0.00 0.00 73 1021.0
20260506044535 59 247 10.0 17.0 0.00 0.00 0.00 93 1020.8
20260506043025 59 214 10.0 16.0 0.00 0.00 0.00 94 1020.9
20260506041503 59 213 16.0 22.0 0.00 0.00 0.00 93 1021.0
20260506040003 59 235 5.0 14.0 0.00 0.00 0.00 93 1021.0
20260506034604 60 60 8.0 16.0 0.00 0.00 0.00 93 1021.1
20260506033119 60 258 10.0 19.0 0.00 0.00 0.00 93 1021.1
20260506031556 60 253 14.0 20.0 0.00 0.00 0.00 91 1021.3
20260506030100 62 258 11.0 19.0 0.00 0.00 0.00 81 1021.6
20260506024607 64 275 6.0 10.0 0.00 0.00 0.00 77 1021.5
20260506023050 64 248 6.0 10.0 0.00 0.00 0.00 77 1021.8
20260506021556 64 263 5.0 11.0 0.00 0.00 0.00 76 1022.1
20260506020038 65 293 4.0 13.0 0.00 0.00 0.00 77 1022.1
20260506014537 64 276 5.0 10.0 0.00 0.00 0.00 75 1022.2
20260506013034 64 268 4.0 8.0 0.00 0.00 0.00 76 1022.5
20260506011548 64 269 4.0 10.0 0.00 0.00 0.00 78 1022.5
20260506010027 63 274 3.0 8.0 0.00 0.00 0.00 82 1022.4
20260506004535 62 281 5.0 10.0 0.00 0.00 0.00 84 1022.6
20260506003100 62 281 6.0 9.0 0.00 0.00 0.00 86 1022.6
20260506001558 60 277 6.0 12.0 0.00 0.00 0.00 87 1022.6
20260506000058 60 282 6.0 11.0 0.00 0.00 0.00 89 1022.7
20260505234549 58 309 2.0 6.0 0.00 0.00 0.00 91 1022.8
20260505233049 57 346 3.0 5.0 0.00 0.00 0.00 90 1022.8
20260505231546 57 346 3.0 5.0 0.00 0.00 0.00 90 1022.8
20260505230044 56 308 6.0 9.0 0.00 0.00 0.00 89 1022.7
20260505224543 57 296 5.0 8.0 0.00 0.00 0.00 88 1022.6
20260505223021 57 305 6.0 10.0 0.00 0.00 0.00 87 1022.3
20260505221520 56 348 5.0 9.0 0.00 0.00 0.00 88 1022.2
20260505220031 56 330 5.0 9.0 0.00 0.00 0.00 88 1022.1
20260505214516 56 331 2.0 5.0 0.00 0.00 0.00 88 1021.9
20260505213013 56 346 2.0 6.0 0.00 0.00 0.00 87 1021.9
20260505211507 56 344 4.0 7.0 0.00 0.00 0.00 87 1021.8
20260505210007 56 329 4.0 7.0 0.00 0.00 0.00 87 1021.8
20260505204506 57 315 4.0 7.0 0.00 0.00 0.00 86 1021.8
20260505203010 57 2 4.0 8.0 0.00 0.00 0.00 85 1021.7
20260505201505 57 329 4.0 7.0 0.00 0.00 0.00 84 1021.7
20260505200058 57 340 4.0 8.0 0.00 0.00 0.00 84 1021.6
20260505194601 57 329 4.0 6.0 0.00 0.00 0.00 82 1021.6
20260505193157 57 352 4.0 6.0 0.00 0.00 0.00 82 1021.6
20260505191556 57 310 4.0 6.0 0.00 0.00 0.00 82 1021.6
20260505190014 57 328 3.0 5.0 0.00 0.00 0.00 82 1021.7
20260505184513 57 332 2.0 5.0 0.00 0.00 0.00 82 1021.6
20260505183021 57 313 2.0 6.0 0.00 0.00 0.00 82 1021.6
20260505181513 57 323 3.0 6.0 0.00 0.00 0.00 83 1021.6
20260505180035 57 332 2.0 5.0 0.00 0.00 0.00 83 1021.6
20260505174535 57 341 3.0 5.0 0.00 0.00 0.00 84 1021.7